AAL6194 KLAX-KSMF

Flight info

Callsign AAL6194
Flight time 1h 2m
Altitude 38000
Route LADYJ4 CSTRO NURAY SUUTR4
Aircraft A319/M-SDE3FGHIRWY/LB1

Departure

Time 2026-04-24 21:39
Airport Los Angeles International Airport (KLAX)

Arrival

Time 2026-04-24 22:41
Airport Sacramento International Airport (KSMF)
Time Latitude Longitude Altitude Speed Heading
2026-04-24 20:46 33.94151 -118.40512 126 ft 0 kts 84°
2026-04-24 21:23 33.94150 -118.40520 126 ft 4 kts 85°
2026-04-24 21:23 33.94150 -118.40552 124 ft 4 kts 110°
2026-04-24 21:24 33.94164 -118.40573 123 ft 2 kts 171°
2026-04-24 21:24 33.94166 -118.40573 124 ft 0 kts 172°
2026-04-24 21:29 33.94165 -118.40573 123 ft 1 kts 172°
2026-04-24 21:29 33.94150 -118.40570 123 ft 3 kts 172°
2026-04-24 21:29 33.94118 -118.40565 124 ft 6 kts 172°
2026-04-24 21:30 33.94070 -118.40558 123 ft 8 kts 173°
2026-04-24 21:30 33.94011 -118.40549 124 ft 6 kts 173°
2026-04-24 21:30 33.94002 -118.40548 124 ft 0 kts 173°
2026-04-24 21:32 33.93985 -118.40546 124 ft 5 kts 173°
2026-04-24 21:32 33.93937 -118.40539 123 ft 8 kts 173°
2026-04-24 21:33 33.93883 -118.40531 123 ft 9 kts 173°
2026-04-24 21:33 33.93842 -118.40517 125 ft 10 kts 142°
2026-04-24 21:33 33.93839 -118.40389 126 ft 14 kts 82°
2026-04-24 21:33 33.93851 -118.40271 126 ft 14 kts 83°
2026-04-24 21:34 33.93864 -118.40143 123 ft 16 kts 83°
2026-04-24 21:34 33.93879 -118.40000 126 ft 18 kts 83°
2026-04-24 21:34 33.93895 -118.39841 126 ft 20 kts 83°
2026-04-24 21:34 33.93912 -118.39670 123 ft 22 kts 83°
2026-04-24 21:35 33.93931 -118.39483 126 ft 23 kts 83°
2026-04-24 21:35 33.93952 -118.39285 126 ft 24 kts 83°
2026-04-24 21:35 33.93972 -118.39086 126 ft 24 kts 83°
2026-04-24 21:35 33.93993 -118.38878 126 ft 26 kts 82°
2026-04-24 21:36 33.94016 -118.38658 125 ft 27 kts 83°
2026-04-24 21:36 33.94037 -118.38446 126 ft 21 kts 83°
2026-04-24 21:36 33.94054 -118.38283 124 ft 19 kts 83°
2026-04-24 21:36 33.94066 -118.38168 126 ft 11 kts 83°
2026-04-24 21:37 33.94076 -118.38068 126 ft 12 kts 83°
2026-04-24 21:37 33.94042 -118.38000 126 ft 11 kts 167°
2026-04-24 21:37 33.93985 -118.38023 125 ft 8 kts 257°
2026-04-24 21:37 33.93984 -118.38035 126 ft 0 kts 263°
2026-04-24 21:38 33.93960 -118.38262 124 ft 69 kts 262°
2026-04-24 21:39 33.93872 -118.39135 126 ft 139 kts 262°
2026-04-24 21:39 33.93732 -118.40447 497 ft 164 kts 261°
2026-04-24 21:39 33.93587 -118.41830 1282 ft 169 kts 260°
2026-04-24 21:39 33.93449 -118.43287 1988 ft 186 kts 261°
2026-04-24 21:40 33.93353 -118.44365 2446 ft 201 kts 261°
2026-04-24 21:40 33.93182 -118.46133 2939 ft 226 kts 262°
2026-04-24 21:40 33.92986 -118.48111 3537 ft 251 kts 263°
2026-04-24 21:40 33.92798 -118.50256 4403 ft 263 kts 263°
2026-04-24 21:41 33.92615 -118.52470 4930 ft 266 kts 264°
2026-04-24 21:41 33.92434 -118.54692 5954 ft 267 kts 264°
2026-04-24 21:41 33.92252 -118.56926 7029 ft 269 kts 264°
2026-04-24 21:41 33.92088 -118.59209 7583 ft 275 kts 269°
2026-04-24 21:42 33.92405 -118.61449 7830 ft 274 kts 289°
2026-04-24 21:42 33.93380 -118.63437 7975 ft 277 kts 310°
2026-04-24 21:42 33.94892 -118.64872 8009 ft 280 kts 329°
2026-04-24 21:42 33.96614 -118.65986 8010 ft 280 kts 330°
2026-04-24 21:43 33.98356 -118.67032 8006 ft 282 kts 337°
2026-04-24 21:43 34.00265 -118.67573 8007 ft 285 kts 353°
2026-04-24 21:43 34.02261 -118.67541 8010 ft 286 kts
2026-04-24 21:43 34.04251 -118.67404 8010 ft 287 kts
2026-04-24 21:44 34.06244 -118.67276 8008 ft 287 kts
2026-04-24 21:44 34.08230 -118.67068 8008 ft 288 kts
2026-04-24 21:44 34.10234 -118.66598 8551 ft 295 kts
2026-04-24 21:44 34.12243 -118.66129 9739 ft 296 kts
2026-04-24 21:45 34.14299 -118.65648 10468 ft 311 kts
2026-04-24 21:45 34.16513 -118.65131 10939 ft 333 kts
2026-04-24 21:45 34.18814 -118.64587 11694 ft 342 kts
2026-04-24 21:45 34.21178 -118.64026 12539 ft 348 kts
2026-04-24 21:46 34.23585 -118.63572 13383 ft 351 kts 359°
2026-04-24 21:46 34.26031 -118.63647 14164 ft 351 kts 347°
2026-04-24 21:46 34.28436 -118.64168 14943 ft 353 kts 343°
2026-04-24 21:46 34.30855 -118.64729 15745 ft 356 kts 343°
2026-04-24 21:47 34.33300 -118.65295 16553 ft 359 kts 342°
2026-04-24 21:47 34.35771 -118.65862 17313 ft 364 kts 342°
2026-04-24 21:47 34.38270 -118.66432 18099 ft 367 kts 342°
2026-04-24 21:47 34.40755 -118.66996 18786 ft 370 kts 341°
2026-04-24 21:48 34.43302 -118.67573 19493 ft 373 kts 341°
2026-04-24 21:48 34.45898 -118.68119 20220 ft 375 kts 342°
2026-04-24 21:48 34.48455 -118.68617 20938 ft 378 kts 342°
2026-04-24 21:48 34.51062 -118.69106 21655 ft 380 kts 342°
2026-04-24 21:49 34.53679 -118.69593 22370 ft 382 kts 341°
2026-04-24 21:49 34.56317 -118.70091 23098 ft 384 kts 341°
2026-04-24 21:49 34.58953 -118.70598 23755 ft 385 kts 340°
2026-04-24 21:49 34.61613 -118.71118 24292 ft 389 kts 340°
2026-04-24 21:50 34.64284 -118.71646 24793 ft 393 kts 340°
2026-04-24 21:50 34.67011 -118.72187 25268 ft 397 kts 340°
2026-04-24 21:50 34.69747 -118.72752 25742 ft 398 kts 337°
2026-04-24 21:50 34.72380 -118.73686 26217 ft 391 kts 329°
2026-04-24 21:51 34.74808 -118.75082 26691 ft 384 kts 321°
2026-04-24 21:51 34.77133 -118.76690 27175 ft 387 kts 320°
2026-04-24 21:51 34.79489 -118.78318 27639 ft 390 kts 321°
2026-04-24 21:51 34.81865 -118.79951 28110 ft 394 kts 321°
2026-04-24 21:52 34.84262 -118.81594 28580 ft 397 kts 321°
2026-04-24 21:52 34.86671 -118.83249 29049 ft 400 kts 321°
2026-04-24 21:52 34.89103 -118.84922 29518 ft 403 kts 321°
2026-04-24 21:52 34.91552 -118.86606 29980 ft 406 kts 320°
2026-04-24 21:53 34.94023 -118.88306 30373 ft 409 kts 320°
2026-04-24 21:53 34.96503 -118.90012 30745 ft 411 kts 320°
2026-04-24 21:53 34.98994 -118.91729 31095 ft 413 kts 320°
2026-04-24 21:53 35.01514 -118.93468 31459 ft 416 kts 320°
2026-04-24 21:54 35.04037 -118.95212 31820 ft 418 kts 320°
2026-04-24 21:54 35.06562 -118.96958 32317 ft 416 kts 320°
2026-04-24 21:54 35.09067 -118.98686 32829 ft 415 kts 320°
2026-04-24 21:54 35.11593 -119.00429 33328 ft 414 kts 319°
2026-04-24 21:55 35.14088 -119.02154 33826 ft 413 kts 319°
2026-04-24 21:55 35.16581 -119.03881 34288 ft 412 kts 319°
2026-04-24 21:55 35.19067 -119.05606 34706 ft 411 kts 319°
2026-04-24 21:55 35.21556 -119.07332 35118 ft 410 kts 320°
2026-04-24 21:56 35.24043 -119.09055 35514 ft 409 kts 320°
2026-04-24 21:56 35.26504 -119.10762 35911 ft 409 kts 320°
2026-04-24 21:56 35.28975 -119.12479 36303 ft 408 kts 320°
2026-04-24 21:56 35.31445 -119.14198 36684 ft 408 kts 321°
2026-04-24 21:57 35.33907 -119.15915 37054 ft 407 kts 321°
2026-04-24 21:57 35.36372 -119.17637 37425 ft 407 kts 321°
2026-04-24 21:57 35.38828 -119.19351 37791 ft 407 kts 321°
2026-04-24 21:57 35.41296 -119.21076 37928 ft 407 kts 321°
2026-04-24 21:58 35.43762 -119.22787 37943 ft 408 kts 323°
2026-04-24 21:58 35.49168 -119.25282 37936 ft 419 kts 333°
2026-04-24 21:59 35.54713 -119.27487 37933 ft 419 kts 333°
2026-04-24 21:59 35.60246 -119.29712 37932 ft 418 kts 333°
2026-04-24 22:00 35.65782 -119.31946 37937 ft 419 kts 333°
2026-04-24 22:00 35.71307 -119.34180 37944 ft 419 kts 333°
2026-04-24 22:01 35.76853 -119.36408 37944 ft 419 kts 333°
2026-04-24 22:01 35.82403 -119.38643 37954 ft 419 kts 333°
2026-04-24 22:02 35.87942 -119.40887 37961 ft 419 kts 333°
2026-04-24 22:02 35.93486 -119.43134 37962 ft 419 kts 333°
2026-04-24 22:03 35.99032 -119.45382 37956 ft 419 kts 333°
2026-04-24 22:03 36.04562 -119.47623 37964 ft 418 kts 333°
2026-04-24 22:04 36.10099 -119.49873 37961 ft 418 kts 333°
2026-04-24 22:04 36.15628 -119.52136 37957 ft 419 kts 333°
2026-04-24 22:05 36.21162 -119.54392 37954 ft 419 kts 333°
2026-04-24 22:05 36.26666 -119.56624 37963 ft 419 kts 334°
2026-04-24 22:06 36.32215 -119.58891 37952 ft 420 kts 333°
2026-04-24 22:06 36.37755 -119.61167 37955 ft 420 kts 333°
2026-04-24 22:07 36.43306 -119.63450 37958 ft 420 kts 334°
2026-04-24 22:07 36.48869 -119.65739 37959 ft 421 kts 334°
2026-04-24 22:08 36.54432 -119.68022 37961 ft 421 kts 334°
2026-04-24 22:08 36.59897 -119.70520 37961 ft 413 kts 325°
2026-04-24 22:09 36.64749 -119.74210 37958 ft 408 kts 320°
2026-04-24 22:09 36.69548 -119.78003 37962 ft 408 kts 321°
2026-04-24 22:10 36.74307 -119.81758 37957 ft 408 kts 321°
2026-04-24 22:10 36.76716 -119.83663 37846 ft 415 kts 321°
2026-04-24 22:10 36.79190 -119.85630 37584 ft 427 kts 321°
2026-04-24 22:10 36.81713 -119.87632 37313 ft 430 kts 321°
2026-04-24 22:11 36.84237 -119.89631 37055 ft 430 kts 321°
2026-04-24 22:11 36.86756 -119.91623 36726 ft 425 kts 321°
2026-04-24 22:11 36.89242 -119.93588 36221 ft 421 kts 321°
2026-04-24 22:11 36.91709 -119.95542 35725 ft 417 kts 321°
2026-04-24 22:12 36.94140 -119.97474 35197 ft 414 kts 321°
2026-04-24 22:12 36.96564 -119.99404 34679 ft 411 kts 321°
2026-04-24 22:12 36.98976 -120.01328 34165 ft 409 kts 321°
2026-04-24 22:12 37.01366 -120.03234 33614 ft 406 kts 321°
2026-04-24 22:13 37.03745 -120.05133 33098 ft 402 kts 322°
2026-04-24 22:13 37.06088 -120.07004 32602 ft 398 kts 322°
2026-04-24 22:13 37.08411 -120.08861 32096 ft 395 kts 322°
2026-04-24 22:13 37.10687 -120.10680 31623 ft 392 kts 323°
2026-04-24 22:14 37.12999 -120.12529 31136 ft 389 kts 323°
2026-04-24 22:14 37.15246 -120.14328 30663 ft 386 kts 323°
2026-04-24 22:14 37.17534 -120.16159 30185 ft 384 kts 324°
2026-04-24 22:14 37.19758 -120.17940 29672 ft 382 kts 324°
2026-04-24 22:15 37.21983 -120.19724 29211 ft 378 kts 324°
2026-04-24 22:15 37.24190 -120.21499 28763 ft 375 kts 324°
2026-04-24 22:15 37.26377 -120.23261 28313 ft 373 kts 324°
2026-04-24 22:15 37.28556 -120.25015 27848 ft 371 kts 324°
2026-04-24 22:16 37.30734 -120.26739 27412 ft 369 kts 325°
2026-04-24 22:16 37.32927 -120.28446 26981 ft 370 kts 326°
2026-04-24 22:16 37.35124 -120.30143 26547 ft 371 kts 326°
2026-04-24 22:16 37.37327 -120.31844 26114 ft 373 kts 326°
2026-04-24 22:17 37.39540 -120.33556 25667 ft 374 kts 326°
2026-04-24 22:17 37.41757 -120.35281 25213 ft 375 kts 326°
2026-04-24 22:17 37.43975 -120.37014 24751 ft 376 kts 326°
2026-04-24 22:17 37.46206 -120.38762 24262 ft 378 kts 326°
2026-04-24 22:18 37.48317 -120.40716 23776 ft 377 kts 319°
2026-04-24 22:18 37.50371 -120.42782 23225 ft 379 kts 320°
2026-04-24 22:18 37.52437 -120.44857 22722 ft 381 kts 320°
2026-04-24 22:18 37.54521 -120.46949 22214 ft 382 kts 320°
2026-04-24 22:19 37.56608 -120.49041 21714 ft 384 kts 320°
2026-04-24 22:19 37.58684 -120.51125 21226 ft 381 kts 320°
2026-04-24 22:19 37.60746 -120.53192 20763 ft 377 kts 321°
2026-04-24 22:19 37.62790 -120.55236 20531 ft 374 kts 321°
2026-04-24 22:20 37.64826 -120.57272 20234 ft 372 kts 321°
2026-04-24 22:20 37.66845 -120.59292 19949 ft 370 kts 321°
2026-04-24 22:20 37.68832 -120.61286 19661 ft 368 kts 321°
2026-04-24 22:20 37.70828 -120.63295 19370 ft 367 kts 321°
2026-04-24 22:21 37.72823 -120.65302 19087 ft 365 kts 322°
2026-04-24 22:21 37.74813 -120.67300 18794 ft 364 kts 322°
2026-04-24 22:21 37.76780 -120.69279 18369 ft 361 kts 322°
2026-04-24 22:21 37.78741 -120.71257 17891 ft 359 kts 322°
2026-04-24 22:22 37.80699 -120.73234 17618 ft 359 kts 322°
2026-04-24 22:22 37.82654 -120.75205 17361 ft 358 kts 322°
2026-04-24 22:22 37.84599 -120.77166 17159 ft 358 kts 322°
2026-04-24 22:22 37.86540 -120.79121 16831 ft 356 kts 322°
2026-04-24 22:23 37.88474 -120.81077 16405 ft 354 kts 322°
2026-04-24 22:23 37.90387 -120.83021 16027 ft 352 kts 322°
2026-04-24 22:23 37.92279 -120.84948 15635 ft 350 kts 322°
2026-04-24 22:23 37.94176 -120.86882 15249 ft 348 kts 322°
2026-04-24 22:24 37.95426 -120.88155 14989 ft 346 kts 322°
2026-04-24 22:24 37.97297 -120.90063 14607 ft 345 kts 322°
2026-04-24 22:24 37.99158 -120.91962 14225 ft 343 kts 322°
2026-04-24 22:24 38.01006 -120.93848 13832 ft 341 kts 322°
2026-04-24 22:25 38.02856 -120.95736 13425 ft 339 kts 322°
2026-04-24 22:25 38.04681 -120.97601 13033 ft 338 kts 322°
2026-04-24 22:25 38.06508 -120.99468 12673 ft 337 kts 322°
2026-04-24 22:25 38.08208 -121.01537 12294 ft 337 kts 312°
2026-04-24 22:26 38.09726 -121.03780 11917 ft 336 kts 312°
2026-04-24 22:26 38.11249 -121.06032 11551 ft 334 kts 312°
2026-04-24 22:26 38.12760 -121.08259 11173 ft 333 kts 312°
2026-04-24 22:26 38.14267 -121.10483 10814 ft 330 kts 312°
2026-04-24 22:27 38.15735 -121.12653 10680 ft 315 kts 312°
2026-04-24 22:27 38.17131 -121.14719 10482 ft 304 kts 312°
2026-04-24 22:27 38.18500 -121.16742 10120 ft 300 kts 312°
2026-04-24 22:27 38.19864 -121.18752 9711 ft 299 kts 313°
2026-04-24 22:28 38.21218 -121.20740 9270 ft 297 kts 312°
2026-04-24 22:28 38.22598 -121.22678 8954 ft 291 kts 315°
2026-04-24 22:28 38.24016 -121.24503 8891 ft 291 kts 317°
2026-04-24 22:28 38.25463 -121.26299 8809 ft 290 kts 317°
2026-04-24 22:29 38.28349 -121.29864 8548 ft 289 kts 317°
2026-04-24 22:29 38.29787 -121.31662 8430 ft 289 kts 316°
2026-04-24 22:29 38.31212 -121.33459 8310 ft 288 kts 316°
2026-04-24 22:30 38.32634 -121.35260 8162 ft 288 kts 316°
2026-04-24 22:30 38.34041 -121.37052 8040 ft 287 kts 316°
2026-04-24 22:30 38.35488 -121.38881 7913 ft 287 kts 316°
2026-04-24 22:30 38.36905 -121.40677 7785 ft 286 kts 316°
2026-04-24 22:31 38.38308 -121.42461 7670 ft 286 kts 316°
2026-04-24 22:31 38.39713 -121.44254 7534 ft 285 kts 316°
2026-04-24 22:31 38.41094 -121.46018 7407 ft 284 kts 316°
2026-04-24 22:31 38.42506 -121.47818 7285 ft 284 kts 316°
2026-04-24 22:32 38.43907 -121.49604 7155 ft 283 kts 316°
2026-04-24 22:32 38.45302 -121.51380 7032 ft 283 kts 316°
2026-04-24 22:32 38.46689 -121.53143 6973 ft 282 kts 316°
2026-04-24 22:32 38.48138 -121.54821 6957 ft 282 kts 322°
2026-04-24 22:33 38.49676 -121.56368 6838 ft 282 kts 322°
2026-04-24 22:33 38.51213 -121.57917 6701 ft 281 kts 322°
2026-04-24 22:33 38.52750 -121.59464 6584 ft 280 kts 322°
2026-04-24 22:33 38.54282 -121.61003 6462 ft 280 kts 322°
2026-04-24 22:34 38.55788 -121.62519 6341 ft 279 kts 322°
2026-04-24 22:34 38.57315 -121.64044 6021 ft 278 kts 324°
2026-04-24 22:34 38.58998 -121.65230 5593 ft 276 kts 338°
2026-04-24 22:34 38.60819 -121.65964 5150 ft 274 kts 343°
2026-04-24 22:35 38.62646 -121.66657 4700 ft 273 kts 343°
2026-04-24 22:35 38.64442 -121.67347 4415 ft 266 kts 342°
2026-04-24 22:35 38.66188 -121.68022 4153 ft 257 kts 342°
2026-04-24 22:35 38.67869 -121.68672 3999 ft 247 kts 342°
2026-04-24 22:36 38.69453 -121.69282 3975 ft 230 kts 342°
2026-04-24 22:36 38.70945 -121.69816 3972 ft 214 kts 349°
2026-04-24 22:36 38.72413 -121.69919 3777 ft 211 kts
2026-04-24 22:36 38.73888 -121.69882 3525 ft 212 kts
2026-04-24 22:37 38.75359 -121.69849 3345 ft 209 kts 360°
2026-04-24 22:37 38.76783 -121.69759 3222 ft 201 kts
2026-04-24 22:37 38.78085 -121.69145 2968 ft 201 kts 29°
2026-04-24 22:37 38.79134 -121.67962 2632 ft 202 kts 51°
2026-04-24 22:38 38.79776 -121.66392 2294 ft 196 kts 73°
2026-04-24 22:38 38.79937 -121.64706 2075 ft 186 kts 94°
2026-04-24 22:38 38.79678 -121.63130 1865 ft 177 kts 112°
2026-04-24 22:38 38.79074 -121.61812 1663 ft 165 kts 132°
2026-04-24 22:39 38.78251 -121.60857 1492 ft 157 kts 148°
2026-04-24 22:39 38.77294 -121.60262 1300 ft 151 kts 165°
2026-04-24 22:39 38.76308 -121.60029 1113 ft 140 kts 179°
2026-04-24 22:39 38.75354 -121.60036 952 ft 134 kts 184°
2026-04-24 22:40 38.74445 -121.60046 777 ft 127 kts 184°
2026-04-24 22:40 38.73569 -121.60058 620 ft 127 kts 182°
2026-04-24 22:40 38.72688 -121.60078 469 ft 126 kts 181°
2026-04-24 22:40 38.71810 -121.60086 289 ft 127 kts 180°
2026-04-24 22:41 38.70935 -121.60106 119 ft 125 kts 181°
2026-04-24 22:41 38.70117 -121.60118 39 ft 97 kts 180°
2026-04-24 22:41 38.69719 -121.60125 36 ft 31 kts 181°
2026-04-24 22:41 38.69529 -121.60102 35 ft 26 kts 163°
2026-04-24 22:42 38.69372 -121.60007 37 ft 24 kts 150°
2026-04-24 22:42 38.69272 -121.59936 37 ft 13 kts 151°
2026-04-24 22:42 38.69213 -121.59852 37 ft 14 kts 86°
2026-04-24 22:42 38.69214 -121.59719 37 ft 16 kts 90°
2026-04-24 22:43 38.69262 -121.59585 35 ft 17 kts 45°
2026-04-24 22:43 38.69352 -121.59467 36 ft 19 kts 46°
2026-04-24 22:43 38.69421 -121.59408 37 ft 8 kts 358°
2026-04-24 22:43 38.69435 -121.59412 37 ft 0 kts 348°
2026-04-24 22:45 38.69446 -121.59421 37 ft 5 kts 321°
2026-04-24 22:45 38.69454 -121.59486 37 ft 9 kts 272°
2026-04-24 22:45 38.69477 -121.59589 37 ft 16 kts 324°
2026-04-24 22:46 38.69595 -121.59597 37 ft 18 kts
2026-04-24 22:46 38.69696 -121.59559 36 ft 15 kts 65°
2026-04-24 22:46 38.69699 -121.59418 37 ft 17 kts 90°
2026-04-24 22:46 38.69696 -121.59259 37 ft 19 kts 91°
2026-04-24 22:47 38.69695 -121.59086 37 ft 21 kts 91°
2026-04-24 22:47 38.69693 -121.58966 37 ft 5 kts 90°
2026-04-24 22:47 38.69663 -121.58917 37 ft 10 kts 165°
2026-04-24 22:47 38.69609 -121.58904 37 ft 5 kts 139°
2026-04-24 22:48 38.69575 -121.58860 37 ft 9 kts 148°
2026-04-24 22:48 38.69522 -121.58831 37 ft 6 kts 155°
2026-04-24 22:48 38.69497 -121.58816 37 ft 2 kts 155°
2026-04-24 22:48 38.69492 -121.58813 37 ft 0 kts 155°